Flag for Germany Weather past 2 weeks in Nürtingen, Baden-Württemberg, Germany

Now
54 °F

Scattered clouds.


Feels Like: 54 °F
Forecast: 48 / 71 °F
Wind: 1 mph from North

Location: Stuttgart-Echterdingen

Current Time: Apr 26, 2015 at 7:54:00 AM

Latest Report: Apr 26, 2015 at 7:20 AM


Visibility: N/A

Pressure: 29.83 "Hg

Humidity: 88%

Dew point: 50 °F

Location of NürtingenLocation

Historic Weather in Nürtingen — Graph

°F

Nürtingen temperature yesterday

Maximum temperature yesterday: 66 °F (at 2:20 PM)
Minimum temperature yesterday: 41 °F (at 5:20 AM)
Average temperature yesterday: 53 °F

Past Weeks' High & Low Weather Summary

 TemperatureHumidityPressure
High77 °F (Apr 15, 3:20 PM)94% (Apr 25, 9:50 PM)30.42 "Hg (Apr 25, 9:50 PM)
Low32 °F (Apr 23, 6:20 AM)15% (Apr 15, 5:50 PM)29.83 "Hg (Apr 25, 7:50 PM)
Average54 °F57%30.15 "Hg
* Reported Apr 11 6:20 AM — Apr 26 6:50 AM, Nürtingen, Weather by CustomWeather, © 2015

Note: Actual official high and low records may vary slightly from our data, if they occured in-between our weather recording intervals... More about our weather records

Advertising

Nürtingen weather history for previous 24 hours

 ConditionsComfort  
Time TempWeatherWind HumidityBarometerVisibility
6:50 AM
Sun, Apr 26
52 °FPassing clouds.2 mph88%29.83 "HgN/A
6:20 AM52 °FPassing clouds.3 mph88%29.83 "HgN/A
5:50 AM54 °FPassing clouds.1 mph88%29.83 "HgN/A
5:20 AM54 °FPartly cloudy.1 mph88%29.83 "HgN/A
4:50 AM52 °FClear.2 mph88%29.86 "Hg10 mi
4:20 AM54 °FClear.2 mph82%29.86 "Hg10 mi
3:50 AM52 °FClear.2 mph88%29.86 "Hg10 mi
3:20 AM54 °FPartly cloudy.2 mph82%29.86 "HgN/A
2:50 AM54 °FPartly cloudy.2 mph88%29.86 "HgN/A
2:20 AM54 °FLight rain. Partly cloudy.3 mph88%29.86 "HgN/A
1:50 AM54 °FPassing clouds.3 mph88%29.86 "HgN/A
1:20 AM55 °FPassing clouds.6 mph82%29.86 "HgN/A
12:50 AM55 °FPassing clouds.6 mph82%29.86 "HgN/A
12:20 AM55 °FPassing clouds.5 mph82%29.86 "HgN/A
11:20 PM
Sat, Apr 25
55 °FPartly cloudy.5 mph82%29.86 "HgN/A
10:50 PM55 °FPartly cloudy.3 mph88%29.86 "HgN/A
10:20 PM55 °FPassing clouds.3 mph88%29.86 "HgN/A
9:50 PM55 °FSprinkles. Passing clouds.1 mph94%29.86 "HgN/A
9:20 PM55 °FPartly sunny.1 mph88%29.86 "HgN/A
8:50 PM57 °FPartly sunny.2 mph88%29.86 "HgN/A
8:20 PM57 °FBroken clouds.5 mph88%29.86 "HgN/A
7:50 PM57 °FBroken clouds.5 mph88%29.83 "HgN/A
7:20 PM57 °FPartly sunny.5 mph88%29.86 "HgN/A
6:50 PM57 °FLight rain. Broken clouds.7 mph88%29.86 "HgN/A
6:20 PM57 °FLight rain. Broken clouds.7 mph88%29.86 "HgN/A
5:50 PM59 °FLight rain. Broken clouds.8 mph77%29.86 "HgN/A
5:20 PM59 °FLight rain. Broken clouds.8 mph72%29.86 "HgN/A
4:50 PM61 °FSprinkles. Broken clouds.12 mph68%29.86 "HgN/A
4:20 PM63 °FSprinkles. Broken clouds.12 mph64%29.86 "HgN/A
3:50 PM63 °FSprinkles. Partly sunny.9 mph59%29.86 "HgN/A
3:20 PM61 °FSprinkles. Partly sunny.14 mph68%29.86 "HgN/A
2:50 PM63 °FSprinkles. Partly sunny.14 mph59%29.86 "HgN/A
2:20 PM66 °FScattered showers. Broken clouds.15 mph46%29.86 "HgN/A
1:50 PM64 °FBroken clouds.10 mph52%29.86 "HgN/A
1:20 PM64 °FBroken clouds.7 mph56%29.86 "HgN/A
12:50 PM61 °FBroken clouds.5 mph68%29.86 "HgN/A
12:20 PM57 °FLight rain. Broken clouds.3 mph72%29.86 "HgN/A
11:50 AM54 °FPartly sunny.6 mph77%29.89 "HgN/A
11:20 AM54 °FLight rain. Broken clouds.5 mph77%29.89 "HgN/A
10:50 AM54 °FLight rain. Partly sunny.3 mph77%29.89 "HgN/A
10:20 AM54 °FLight rain. Clear.2 mph72%29.89 "HgN/A
9:50 AM54 °FLight rain. Clear.3 mph63%29.89 "HgN/A
9:20 AM52 °FSunny.2 mph77%29.89 "Hg10 mi
8:50 AM52 °FLight rain. Clear.1 mph62%29.89 "HgN/A
8:20 AM48 °FSunny.No wind71%29.89 "Hg10 mi
7:50 AM46 °FPassing clouds.3 mph76%29.89 "HgN/A
7:20 AM43 °FPassing clouds.3 mph87%29.89 "HgN/A
Weather by CustomWeather, © 2015

See weather overviewHow to use our weather pages